Weather History for Gastonia, NC

Change the Weather History Date:

Friday, October 21, 2011

  Actual Average (KCLT) Record (KCLT)
Temperature  
Mean Temperature 49 °F 59 °F  
Max Temperature 63 °F 70 °F 88 °F (1943)
Min Temperature 36 °F 47 °F 30 °F (1952)
Degree Days  
Heating Degree Days 16 7  
Month to date heating degree days 99  
Since 1 July heating degree days 122  
Cooling Degree Days 0 1  
Month to date cooling degree days 34  
Year to date cooling degree days 1509  
Moisture  
Dew Point 39 °F    
Average Humidity 76    
Maximum Humidity 100    
Minimum Humidity 41    
Precipitation  
Precipitation 0.00 in 0.11 in 1.31 in (1929)
Month to date precipitation 2.41  
Year to date precipitation 34.25  
Snow  
Snow 0.00 in 0.00 in 0.00 in ()
Month to date snowfall 0.0  
Since 1 July snowfall 0.0  
Since 1 September snowfall 0.0  
Snow Depth -    
Sea Level Pressure  
Sea Level Pressure 30.06 in    
Wind  
Wind Speed 1 mph (SW)    
Max Wind Speed 5 mph    
Max Gust Speed -    
Visibility 9 miles    
Events      
T = Trace of Precipitation, MM = Missing Value Source: NWS Daily Summary

Daily Weather History Graph

Daily Weather History Graph

Search for Another Location

Airport:

Trip Planner

Search our weather history database for the weather conditions in past years. The results will help you decide how hot, cold, wet, or windy it might be!

Date:

Astronomy

Oct. 21, 2011 Rise Set
Actual Time 7:35 AM EDT 6:42 PM EDT
Civil Twilight 7:09 AM EDT 7:08 PM EDT
Nautical Twilight 6:40 AM EDT 7:37 PM EDT
Astronomical Twilight 6:10 AM EDT 8:07 PM EDT
Moon 1:37 AM EDT 3:14 PM EDT
Length of Visible Light 11h 58m
Length of Day
11h 06m
Waning Crescent, 34% of the Moon is Illuminated
Oct 21
Waning Crescent
Oct 26
New
Nov 2
First Quarter
Nov 10
Full
Nov 18
Last Quarter

Hourly Weather History & Observations

Time (EDT) Temp. Windchill Dew Point Humidity Pressure Visibility Wind Dir Wind Speed Gust Speed Precip Events Conditions
12:54 AM 41.0 °F - 39.0 °F 93% 29.99 in 10.0 mi Calm Calm - N/A   Clear
2:54 AM 39.0 °F - 37.9 °F 96% 30.01 in 9.0 mi Calm Calm - N/A   Clear
3:54 AM 37.9 °F - 37.0 °F 97% 30.01 in 6.0 mi Calm Calm - N/A   Clear
4:54 AM 37.0 °F - 36.0 °F 96% 30.01 in 6.0 mi Calm Calm - N/A   Clear
5:54 AM 36.0 °F - 36.0 °F 100% 30.03 in 6.0 mi Calm Calm - N/A   Clear
6:54 AM 36.0 °F - 35.1 °F 97% 30.05 in 6.0 mi Calm Calm - N/A   Clear
7:54 AM 36.0 °F 33.3 °F 35.1 °F 97% 30.06 in 6.0 mi WSW 3.5 mph - N/A   Clear
8:54 AM 42.1 °F 40.2 °F 39.9 °F 92% 30.09 in 10.0 mi SW 3.5 mph - N/A   Clear
9:54 AM 50.0 °F - 43.0 °F 77% 30.10 in 10.0 mi Calm Calm - N/A   Clear
10:54 AM 55.9 °F - 39.0 °F 53% 30.11 in 10.0 mi Calm Calm - N/A   Clear
11:54 AM 57.0 °F - 37.9 °F 49% 30.10 in 10.0 mi Calm Calm - N/A   Clear
12:54 PM 60.1 °F - 39.0 °F 46% 30.08 in 10.0 mi Variable 3.5 mph - N/A   Clear
1:54 PM 60.1 °F - 37.9 °F 44% 30.06 in 10.0 mi Calm Calm - N/A   Partly Cloudy
2:54 PM 62.1 °F - 39.9 °F 44% 30.04 in 10.0 mi Variable 4.6 mph - N/A   Partly Cloudy
3:54 PM 62.1 °F - 37.9 °F 41% 30.04 in 10.0 mi Calm Calm - N/A   Clear
4:54 PM 61.0 °F - 37.9 °F 42% 30.05 in 10.0 mi Calm Calm - N/A   Clear
5:54 PM 60.1 °F - 39.0 °F 46% 30.05 in 10.0 mi Calm Calm - N/A   Clear
6:54 PM 51.1 °F - 45.0 °F 80% 30.08 in 10.0 mi Calm Calm - N/A   Clear
7:54 PM 48.0 °F - 44.1 °F 86% 30.09 in 9.0 mi Calm Calm - N/A   Clear
8:54 PM 45.0 °F - 43.0 °F 93% 30.10 in 10.0 mi Calm Calm - N/A   Clear
9:54 PM 44.1 °F - 42.1 °F 93% 30.10 in 10.0 mi Calm Calm - N/A   Clear
10:54 PM 44.1 °F - 41.0 °F 89% 30.10 in 10.0 mi Calm Calm - N/A   Clear
11:54 PM 43.0 °F - 41.0 °F 93% 30.11 in 10.0 mi Calm Calm - N/A   Clear